| time (UTC) | temp F | wind direction | speed MPH | gust MPH | rain 1hr in | rain 24hr in | rain mn in | humidity % | barometer mb |
| 20260509055516 | 47 | 0 | 3.0 | 11.0 | 0.00 | 0.00 | 0.00 | 32 | 999.5 |
| 20260509054516 | 46 | 23 | 3.0 | 8.0 | 0.00 | 0.00 | 0.00 | 36 | 999.3 |
| 20260509053515 | 43 | 23 | 3.0 | 7.0 | 0.00 | 0.00 | 0.00 | 42 | 999.4 |
| 20260509052516 | 40 | 158 | 1.0 | 3.0 | 0.00 | 0.00 | 0.00 | 49 | 999.4 |
| 20260509051516 | 42 | 158 | 1.0 | 3.0 | 0.00 | 0.00 | 0.00 | 51 | 999.4 |
| 20260509050515 | 40 | 0.0 | 2.0 | 0.00 | 0.00 | 0.00 | 51 | 999.5 | |
| 20260509045516 | 37 | 0.0 | 2.0 | 0.00 | 0.00 | 0.00 | 56 | 999.5 | |
| 20260509044516 | 37 | 0.0 | 0.0 | 0.00 | 0.00 | 0.00 | 59 | 999.5 | |
| 20260509043515 | 37 | 0.0 | 0.0 | 0.00 | 0.00 | 0.00 | 60 | 999.3 | |
| 20260509042516 | 37 | 0.0 | 0.0 | 0.00 | 0.00 | 0.00 | 58 | 999.4 | |
| 20260509041516 | 38 | 0.0 | 1.0 | 0.00 | 0.00 | 0.00 | 57 | 999.5 | |
| 20260509040515 | 40 | 0.0 | 0.0 | 0.00 | 0.00 | 0.00 | 54 | 999.5 | |
| 20260509035515 | 40 | 0.0 | 2.0 | 0.00 | 0.00 | 0.00 | 53 | 999.7 | |
| 20260509034536 | 41 | 90 | 1.0 | 3.0 | 0.00 | 0.00 | 0.00 | 51 | 999.7 |
| 20260509033516 | 43 | 68 | 1.0 | 4.0 | 0.00 | 0.00 | 0.00 | 50 | 999.5 |
| 20260509032515 | 41 | 68 | 2.0 | 4.0 | 0.00 | 0.00 | 0.00 | 53 | 999.7 |
| 20260509031515 | 39 | 68 | 2.0 | 4.0 | 0.00 | 0.00 | 0.00 | 56 | 999.7 |
| 20260509030516 | 39 | 135 | 2.0 | 3.0 | 0.00 | 0.00 | 0.00 | 54 | 999.7 |
| 20260509025535 | 39 | 135 | 2.0 | 4.0 | 0.00 | 0.00 | 0.00 | 55 | 999.8 |
| 20260509024516 | 40 | 135 | 1.0 | 3.0 | 0.00 | 0.00 | 0.00 | 54 | 999.8 |
| 20260509023515 | 40 | 135 | 2.0 | 4.0 | 0.00 | 0.00 | 0.00 | 54 | 999.7 |
| 20260509022515 | 40 | 135 | 1.0 | 3.0 | 0.00 | 0.00 | 0.00 | 54 | 999.7 |
| 20260509021535 | 40 | 135 | 2.0 | 3.0 | 0.00 | 0.00 | 0.00 | 54 | 999.5 |
| 20260509020519 | 41 | 135 | 1.0 | 2.0 | 0.00 | 0.00 | 0.00 | 53 | 999.4 |
| 20260509015517 | 42 | 135 | 1.0 | 2.0 | 0.00 | 0.00 | 0.00 | 52 | 999.4 |
| 20260509014517 | 42 | 0.0 | 0.0 | 0.00 | 0.00 | 0.00 | 52 | 999.5 | |
| 20260509013517 | 43 | 0.0 | 1.0 | 0.00 | 0.00 | 0.00 | 52 | 999.5 | |
| 20260509012517 | 44 | 0.0 | 0.0 | 0.00 | 0.00 | 0.00 | 52 | 999.5 | |
| 20260509011517 | 44 | 0.0 | 0.0 | 0.00 | 0.00 | 0.00 | 52 | 999.5 | |
| 20260509010517 | 45 | 0.0 | 1.0 | 0.00 | 0.00 | 0.00 | 51 | 999.5 | |
| 20260509005517 | 45 | 135 | 1.0 | 3.0 | 0.00 | 0.00 | 0.00 | 51 | 999.5 |
| 20260509004517 | 45 | 0.0 | 2.0 | 0.00 | 0.00 | 0.00 | 50 | 999.5 | |
| 20260509003517 | 45 | 68 | 1.0 | 4.0 | 0.00 | 0.00 | 0.00 | 49 | 999.5 |
| 20260509002537 | 46 | 90 | 1.0 | 3.0 | 0.00 | 0.00 | 0.00 | 46 | 999.7 |
| 20260509001517 | 48 | 68 | 1.0 | 3.0 | 0.00 | 0.00 | 0.00 | 43 | 999.7 |
| 20260509000517 | 48 | 45 | 1.0 | 4.0 | 0.00 | 0.00 | 0.00 | 41 | 999.6 |
| 20260508235517 | 48 | 45 | 2.0 | 4.0 | 0.00 | 0.00 | 0.00 | 41 | 999.7 |
| 20260508234517 | 49 | 0.0 | 3.0 | 0.00 | 0.00 | 0.00 | 40 | 999.8 | |
| 20260508233517 | 50 | 135 | 1.0 | 4.0 | 0.00 | 0.00 | 0.00 | 37 | 999.5 |
| 20260508232517 | 51 | 135 | 2.0 | 4.0 | 0.00 | 0.00 | 0.00 | 34 | 999.5 |
| 20260508231517 | 52 | 0.0 | 0.0 | 0.00 | 0.00 | 0.00 | 33 | 999.6 | |
| 20260508230517 | 51 | 0.0 | 0.0 | 0.00 | 0.00 | 0.00 | 34 | 999.7 | |
| 20260508225517 | 51 | 225 | 1.0 | 4.0 | 0.00 | 0.00 | 0.00 | 36 | 999.8 |
| 20260508224517 | 51 | 0.0 | 2.0 | 0.00 | 0.00 | 0.00 | 35 | 1000.1 | |
| 20260508223517 | 51 | 0.0 | 0.0 | 0.00 | 0.00 | 0.00 | 35 | 1000.1 | |
| 20260508222517 | 52 | 225 | 1.0 | 4.0 | 0.00 | 0.00 | 0.00 | 32 | 1000.2 |
| 20260508221517 | 51 | 0.0 | 2.0 | 0.00 | 0.00 | 0.00 | 33 | 1000.3 | |
| 20260508220537 | 51 | 225 | 1.0 | 2.0 | 0.00 | 0.00 | 0.00 | 33 | 1000.5 |
| 20260508215517 | 51 | 0.0 | 2.0 | 0.00 | 0.00 | 0.00 | 33 | 1000.6 | |
| 20260508214517 | 50 | 225 | 2.0 | 6.0 | 0.00 | 0.00 | 0.00 | 35 | 1000.7 |
| 20260508213517 | 49 | 225 | 3.0 | 8.0 | 0.00 | 0.00 | 0.00 | 37 | 1000.7 |
| 20260508212517 | 47 | 225 | 3.0 | 6.0 | 0.00 | 0.00 | 0.00 | 43 | 1000.6 |
| 20260508211517 | 48 | 225 | 5.0 | 8.0 | 0.00 | 0.00 | 0.00 | 40 | 1000.9 |
| 20260508210517 | 48 | 225 | 3.0 | 6.0 | 0.00 | 0.00 | 0.00 | 39 | 1001.0 |
| 20260508205517 | 50 | 225 | 3.0 | 5.0 | 0.00 | 0.00 | 0.00 | 38 | 1001.1 |
| 20260508204517 | 51 | 225 | 4.0 | 9.0 | 0.00 | 0.00 | 0.00 | 34 | 1001.3 |
| 20260508203517 | 47 | 225 | 2.0 | 9.0 | 0.00 | 0.00 | 0.00 | 41 | 1001.3 |
| 20260508202537 | 45 | 203 | 2.0 | 5.0 | 0.00 | 0.00 | 0.00 | 47 | 1001.2 |
| 20260508201517 | 44 | 225 | 1.0 | 2.0 | 0.00 | 0.00 | 0.00 | 49 | 1001.4 |
| 20260508200516 | 43 | 225 | 1.0 | 3.0 | 0.00 | 0.00 | 0.00 | 52 | 1001.6 |
| 20260508195517 | 42 | 225 | 3.0 | 6.0 | 0.00 | 0.00 | 0.00 | 54 | 1001.8 |
| 20260508194517 | 43 | 225 | 3.0 | 5.0 | 0.00 | 0.00 | 0.00 | 54 | 1001.9 |
| 20260508193517 | 43 | 225 | 4.0 | 6.0 | 0.00 | 0.00 | 0.00 | 52 | 1002.1 |
| 20260508192517 | 45 | 225 | 4.0 | 9.0 | 0.00 | 0.00 | 0.00 | 48 | 1002.3 |
| 20260508191516 | 45 | 225 | 6.0 | 10.0 | 0.00 | 0.00 | 0.00 | 47 | 1002.4 |
| 20260508190517 | 44 | 225 | 6.0 | 10.0 | 0.00 | 0.00 | 0.00 | 49 | 1002.5 |
| 20260508185516 | 43 | 225 | 5.0 | 8.0 | 0.00 | 0.00 | 0.00 | 52 | 1002.5 |
| 20260508184516 | 44 | 225 | 5.0 | 8.0 | 0.00 | 0.00 | 0.00 | 49 | 1002.7 |
| 20260508183516 | 44 | 0 | 6.0 | 8.0 | 0.00 | 0.00 | 0.00 | 50 | 1002.7 |
| 20260508182516 | 43 | 0 | 5.0 | 10.0 | 0.00 | 0.00 | 0.00 | 51 | 1002.8 |
| 20260508181517 | 43 | 225 | 5.0 | 10.0 | 0.00 | 0.00 | 0.00 | 52 | 1002.8 |
| 20260508180516 | 43 | 225 | 7.0 | 12.0 | 0.00 | 0.00 | 0.00 | 49 | 1003.0 |
| 20260508175537 | 41 | 225 | 4.0 | 9.0 | 0.00 | 0.00 | 0.00 | 55 | 1003.2 |
| 20260508174516 | 41 | 225 | 7.0 | 12.0 | 0.00 | 0.00 | 0.00 | 54 | 1003.4 |
| 20260508173517 | 40 | 225 | 7.0 | 12.0 | 0.00 | 0.00 | 0.00 | 57 | 1003.4 |
| 20260508172517 | 40 | 225 | 4.0 | 8.0 | 0.00 | 0.00 | 0.00 | 58 | 1003.6 |
| 20260508171517 | 39 | 0 | 7.0 | 12.0 | 0.00 | 0.00 | 0.00 | 58 | 1003.5 |
| 20260508170516 | 41 | 0 | 7.0 | 10.0 | 0.00 | 0.00 | 0.00 | 54 | 1003.7 |
| 20260508165536 | 40 | 0 | 6.0 | 10.0 | 0.00 | 0.00 | 0.00 | 58 | 1003.8 |
| 20260508164516 | 39 | 225 | 7.0 | 11.0 | 0.00 | 0.00 | 0.00 | 61 | 1003.9 |
| 20260508163536 | 39 | 225 | 4.0 | 8.0 | 0.00 | 0.00 | 0.00 | 65 | 1004.1 |
| 20260508162516 | 39 | 203 | 4.0 | 5.0 | 0.00 | 0.00 | 0.00 | 65 | 1004.2 |
| 20260508161516 | 40 | 0 | 7.0 | 15.0 | 0.00 | 0.00 | 0.00 | 60 | 1004.2 |
| 20260508160516 | 39 | 225 | 7.0 | 14.0 | 0.00 | 0.00 | 0.00 | 59 | 1004.3 |
| 20260508155517 | 39 | 225 | 6.0 | 11.0 | 0.00 | 0.00 | 0.00 | 60 | 1004.4 |
| 20260508154516 | 39 | 225 | 5.0 | 9.0 | 0.00 | 0.00 | 0.00 | 59 | 1004.6 |
| 20260508153516 | 40 | 0 | 7.0 | 11.0 | 0.00 | 0.00 | 0.00 | 57 | 1004.8 |
| 20260508152537 | 40 | 225 | 6.0 | 10.0 | 0.00 | 0.00 | 0.00 | 56 | 1004.9 |
| 20260508151516 | 40 | 225 | 5.0 | 9.0 | 0.00 | 0.00 | 0.00 | 55 | 1005.0 |
| 20260508150516 | 39 | 0 | 6.0 | 11.0 | 0.00 | 0.00 | 0.00 | 57 | 1005.0 |
| 20260508145516 | 39 | 0 | 6.0 | 10.0 | 0.00 | 0.00 | 0.00 | 58 | 1005.1 |
| 20260508144516 | 39 | 225 | 7.0 | 12.0 | 0.00 | 0.00 | 0.00 | 57 | 1005.1 |
| 20260508143516 | 39 | 0 | 6.0 | 11.0 | 0.00 | 0.00 | 0.00 | 55 | 1005.2 |
| 20260508142516 | 39 | 0 | 6.0 | 10.0 | 0.00 | 0.00 | 0.00 | 55 | 1005.3 |
| 20260508141516 | 39 | 225 | 6.0 | 9.0 | 0.00 | 0.00 | 0.00 | 56 | 1005.3 |
| 20260508140516 | 38 | 225 | 4.0 | 6.0 | 0.00 | 0.00 | 0.00 | 55 | 1005.4 |
| 20260508135516 | 39 | 225 | 5.0 | 6.0 | 0.00 | 0.00 | 0.00 | 53 | 1005.5 |
| 20260508134516 | 38 | 0 | 5.0 | 7.0 | 0.00 | 0.00 | 0.00 | 57 | 1005.7 |
| 20260508133516 | 37 | 0 | 4.0 | 6.0 | 0.00 | 0.00 | 0.00 | 57 | 1005.8 |
| 20260508132556 | 36 | 225 | 4.0 | 5.0 | 0.00 | 0.00 | 0.00 | 60 | 1005.9 |
| 20260508131516 | 36 | 158 | 3.0 | 5.0 | 0.00 | 0.00 | 0.00 | 58 | 1006.0 |
| 20260508130516 | 36 | 23 | 1.0 | 2.0 | 0.00 | 0.00 | 0.00 | 54 | 1006.0 |
| 20260508125516 | 36 | 0.0 | 0.0 | 0.00 | 0.00 | 0.00 | 53 | 1006.0 | |
| 20260508124536 | 36 | 0.0 | 2.0 | 0.00 | 0.00 | 0.00 | 53 | 1006.0 | |
| 20260508123515 | 36 | 0.0 | 0.0 | 0.00 | 0.00 | 0.00 | 57 | 1006.2 | |
| 20260508122516 | 36 | 0.0 | 0.0 | 0.00 | 0.00 | 0.00 | 54 | 1006.3 | |
| 20260508121536 | 38 | 0.0 | 0.0 | 0.00 | 0.00 | 0.00 | 56 | 1006.3 | |
| 20260508120516 | 36 | 0.0 | 0.0 | 0.00 | 0.00 | 0.00 | 58 | 1006.2 | |
| 20260508115516 | 34 | 338 | 1.0 | 2.0 | 0.00 | 0.00 | 0.00 | 56 | 1006.1 |
| 20260508114516 | 32 | 338 | 2.0 | 3.0 | 0.00 | 0.00 | 0.00 | 58 | 1006.1 |
| 20260508113516 | 30 | 338 | 2.0 | 3.0 | 0.00 | 0.00 | 0.00 | 61 | 1006.2 |
| 20260508112516 | 29 | 338 | 3.0 | 4.0 | 0.00 | 0.00 | 0.00 | 62 | 1006.1 |
| 20260508111516 | 27 | 338 | 3.0 | 4.0 | 0.00 | 0.00 | 0.00 | 64 | 1006.1 |
| 20260508110515 | 26 | 338 | 3.0 | 4.0 | 0.00 | 0.00 | 0.00 | 65 | 1006.1 |
| 20260508105535 | 26 | 338 | 3.0 | 4.0 | 0.00 | 0.00 | 0.00 | 64 | 1006.0 |
| 20260508104515 | 26 | 338 | 4.0 | 5.0 | 0.00 | 0.00 | 0.00 | 64 | 1006.2 |
| 20260508103516 | 26 | 23 | 4.0 | 5.0 | 0.00 | 0.00 | 0.00 | 64 | 1006.2 |
| 20260508102515 | 26 | 23 | 3.0 | 4.0 | 0.00 | 0.00 | 0.00 | 64 | 1006.2 |
| 20260508101515 | 26 | 23 | 3.0 | 4.0 | 0.00 | 0.00 | 0.00 | 65 | 1006.3 |
| 20260508100518 | 26 | 23 | 3.0 | 4.0 | 0.00 | 0.00 | 0.00 | 65 | 1006.3 |
| 20260508095517 | 26 | 23 | 3.0 | 4.0 | 0.00 | 0.00 | 0.00 | 65 | 1006.3 |
| 20260508094517 | 26 | 23 | 4.0 | 5.0 | 0.00 | 0.00 | 0.00 | 65 | 1006.4 |
| 20260508093518 | 26 | 23 | 4.0 | 4.0 | 0.00 | 0.00 | 0.00 | 64 | 1006.4 |
| 20260508092517 | 26 | 23 | 4.0 | 4.0 | 0.00 | 0.00 | 0.00 | 64 | 1006.5 |
| 20260508091517 | 26 | 23 | 3.0 | 4.0 | 0.00 | 0.00 | 0.00 | 63 | 1006.5 |
| 20260508090517 | 26 | 23 | 3.0 | 4.0 | 0.00 | 0.00 | 0.00 | 63 | 1006.7 |
| 20260508085517 | 27 | 23 | 3.0 | 4.0 | 0.00 | 0.00 | 0.00 | 63 | 1006.7 |
| 20260508084537 | 27 | 23 | 3.0 | 4.0 | 0.00 | 0.00 | 0.00 | 63 | 1006.8 |
| 20260508083517 | 27 | 23 | 3.0 | 5.0 | 0.00 | 0.00 | 0.00 | 62 | 1006.9 |
| 20260508082517 | 27 | 23 | 3.0 | 4.0 | 0.00 | 0.00 | 0.00 | 62 | 1006.8 |
| 20260508081517 | 27 | 23 | 3.0 | 4.0 | 0.00 | 0.00 | 0.00 | 62 | 1007.0 |
| 20260508080517 | 27 | 23 | 3.0 | 4.0 | 0.00 | 0.00 | 0.00 | 62 | 1007.0 |
| 20260508075537 | 27 | 23 | 3.0 | 4.0 | 0.00 | 0.00 | 0.00 | 62 | 1007.0 |
| 20260508074517 | 27 | 23 | 4.0 | 4.0 | 0.00 | 0.00 | 0.00 | 62 | 1007.1 |
| 20260508073537 | 27 | 23 | 3.0 | 4.0 | 0.00 | 0.00 | 0.00 | 63 | 1007.2 |
| 20260508072538 | 27 | 23 | 4.0 | 4.0 | 0.00 | 0.00 | 0.00 | 62 | 1007.3 |
| 20260508071517 | 27 | 23 | 2.0 | 3.0 | 0.00 | 0.00 | 0.00 | 62 | 1007.4 |
| 20260508070517 | 28 | 23 | 2.0 | 3.0 | 0.00 | 0.00 | 0.00 | 61 | 1007.3 |
| 20260508065517 | 29 | 23 | 2.0 | 3.0 | 0.00 | 0.00 | 0.00 | 59 | 1007.6 |
| 20260508064517 | 29 | 23 | 1.0 | 2.0 | 0.00 | 0.00 | 0.00 | 58 | 1007.7 |
| 20260508063517 | 28 | 23 | 2.0 | 3.0 | 0.00 | 0.00 | 0.00 | 60 | 1007.7 |
| 20260508062517 | 28 | 23 | 3.0 | 4.0 | 0.00 | 0.00 | 0.00 | 61 | 1007.8 |
| 20260508061517 | 28 | 23 | 2.0 | 3.0 | 0.00 | 0.00 | 0.00 | 61 | 1007.8 |
| 20260508060517 | 29 | 23 | 1.0 | 3.0 | 0.00 | 0.00 | 0.00 | 59 | 1008.0 |